Dewpoint
51 50 47 42 42 38 36 32 33 33 35 36 38 38 38 38 37 38 37 36 35 33
53 51 47 43 42 39 35 33 34 35 34 34 34 37 37 35 36 38 39 37 37 35
54 51 49 45 42 37 35 32 34 34 33 32 32 32 34 33 35 36 37 36 35 34
52 51 48 44 41 38 37 33 33 34 32 31 31 32 33 33 33 35 36 35 32 31
49 47 45 44 42 40 35 33 33 33 31 31 30 32 32 33 31 34 33 30 30 30
46 45 44 43 42 38 34 33 33 31 30 29 30 31 32 32 31 30 29 29 30 29
43 43 43 40 36 34 33 33 31 31 30 31 30 31 34 37 31 31 30 30 31 30
39 37 36 35 35 34 33 32 31 32 32 32 33 37 39 34 31 31 30 31 31 30
37 35 36 36 34 34 32 32 31 31 33 35 38 39 35 32 31 31 31 30 30 29
37 36 36 35 33 32 32 34 37 38 37 37 39 35 31 30 30 31 30 30 29 28
35 33 33 33 34 37 39 39 38 39 39 37 34 35 35 29 30 30 30 30 29 28
34 34 37 37 38 38 38 39 38 37 36 35 37 33 30 29 30 30 29 29 28 27
36 37 37 38 38 38 38 37 36 35 35 34 30 29 29 30 31 30 29 29 27 26
38 38 38 38 38 37 36 34 33 31 31 30 29 29 29 29 29 30 29 28 28 27
Wind_Speed
19 18 17 20 20 21 21 17 15 13 11 12 13 11 11 8 8 8 7 7 7 5
19 19 19 21 20 18 18 17 19 16 15 15 13 14 12 8 9 9 8 7 7 7
21 21 19 18 22 20 18 19 19 16 16 14 13 12 11 10 8 8 8 7 8 9
20 20 17 19 19 21 20 21 21 18 16 17 15 11 8 6 5 9 10 9 10 11
17 17 19 19 20 21 22 20 18 16 14 8 7 7 9 7 8 13 13 14 12 13
14 16 18 17 19 21 21 20 14 14 15 17 14 10 6 7 14 14 15 15 14 14
13 13 14 14 15 17 18 18 19 16 14 11 8 6 2 10 15 15 15 15 14 15
9 10 10 11 10 10 11 10 10 14 9 7 5 1 6 13 16 16 17 16 14 16
8 9 9 9 9 9 9 8 10 5 6 2 2 9 16 16 15 14 16 17 15 16
10 10 10 11 13 13 13 14 9 7 5 4 9 15 15 17 13 15 16 16 16 16
11 13 15 17 17 14 11 9 8 4 4 9 13 14 17 20 16 16 17 16 17 18
15 18 17 15 12 9 7 2 3 5 9 11 14 15 18 17 15 15 16 15 16 16
16 14 12 9 6 4 2 5 5 10 11 13 14 15 16 13 11 15 15 14 14 16
10 8 6 5 3 2 3 6 8 10 11 13 14 15 17 17 12 13 15 15 16 15
Wind_Direction
191 183 189 179 176 184 190 186 173 174 167 163 167 172 191 177 171 171 185 192 199 219
196 196 193 190 194 185 187 180 174 174 175 173 182 184 174 182 183 185 197 206 217 231
204 201 196 191 194 190 184 179 178 179 180 182 182 183 177 191 180 194 208 220 227 233
204 199 194 193 187 187 182 183 182 180 185 183 187 180 191 209 187 213 223 225 232 239
198 189 192 193 191 191 188 185 181 186 189 186 174 184 193 208 215 218 223 234 230 240
201 199 201 198 199 192 183 183 183 178 179 176 187 193 190 227 239 227 232 236 233 239
201 202 206 199 187 181 182 176 183 188 182 183 171 176 218 273 258 249 246 244 240 236
188 183 174 166 154 166 172 172 172 169 158 139 145 151 276 271 264 258 255 250 242 237
164 162 140 141 145 136 128 136 137 107 81 93 5 315 291 282 283 272 260 259 249 239
130 128 126 122 117 116 114 114 103 92 45 270 291 276 288 297 294 280 271 262 255 244
112 110 110 109 106 104 110 102 99 189 256 264 262 289 284 292 293 281 272 262 255 246
107 108 101 98 98 96 89 145 218 265 252 260 273 272 282 291 289 283 278 268 255 243
103 94 92 95 90 88 231 281 279 259 258 269 275 283 284 286 284 283 279 273 261 240
79 80 70 65 57 11 327 298 286 283 281 277 277 282 277 277 274 270 281 276 272 254